Retour au catalogue

ARIANE 42P DEB

ActifLEO
NORAD 44510·DEBRIS·🇫🇷 France

Lancé Aug 10, 1992 depuis Guiana Space Centre

Loading…

Prochains Passages (prochaines 24 heures)

TLE

FraisSource: Space-Track

Époque: Sep 13, 2026, 23:26 UTC

1 44510U 92052H   26256.97703407  .00000553  00000-0  25756-2 0  9990
2 44510  66.0594 113.3021 0081153 248.7372 110.4964 12.82443886330982

Suivez ARIANE 42P DEB en temps réel avec AllMySat

Download on the App Store